Starlink 4776

operational
NORAD ID: 53837 Int'l Des: 2022-114 Owner: SPXS Country: US Constellation: starlink
LEOCIRCULAR

Starlink 4776について

説明を読み込み中...

リアルタイム位置

3D地球を読み込み中...

次回通過

高度履歴

Altitude vs Time

uPlot chart will show altitude changes over time

軌道要素

1 53837U 22114V 26037.14711565 .00000270 00000-0 35037-4 0 9995
2 53837 53.2187 85.4270 0001539 105.5645 254.5517 15.08838919188079
Epoch: Feb 6, 2026 • Age: 7 hours

現在のステータス

高度 542.9 km
速度 7.60 km/s
衛星直下点 41.06°N, 163.98°W
打ち上げ日 Sep 19, 2022
運用期間 3.3 years
タイプ internet

技術仕様

分類 Payload
質量 305.00 kg
乾燥質量 290.00 kg
総質量 305.00 kg
長さ 0.20 m
直径 2.80 m
スパン 9.00 m
形状 Box + pan
製造者 SPXS
バスタイプ Starlink
フェーズステータス In Orbit
所有者/国 SPXS/US

大規模コンステレーション

Loading constellations...